Stündliche Wetter Holodnogorskiy

Heute, 22 Juni, Dienstag

Zeit Temperatur Niederschläge Wind Luftdruck Luftfeuchtigkeit
00:00 +18°C° 0 mm 4 m/S 712 mmHg 54%
01:00 +17°C° 0 mm 3 m/S 712 mmHg 57%
02:00 +17°C° 0 mm 3 m/S 712 mmHg 59%
03:00 +16°C° 0 mm 3 m/S 712 mmHg 64%
04:00 +17°C° 0 mm 3 m/S 712 mmHg 66%
05:00 +17°C° 0 mm 2 m/S 712 mmHg 69%
06:00 +17°C° 0 mm 2 m/S 712 mmHg 72%
07:00 +19°C° 0 mm 3 m/S 712 mmHg 66%
08:00 +21°C° 0 mm 3 m/S 712 mmHg 61%
09:00 +23°C° 0 mm 4 m/S 713 mmHg 53%
10:00 +25°C° 0 mm 4 m/S 713 mmHg 52%
11:00 +27°C° 0 mm 4 m/S 713 mmHg 51%
12:00 +28°C° 0 mm 4 m/S 713 mmHg 50%
13:00 +29°C° 0 mm 4 m/S 713 mmHg 49%
14:00 +29°C° 0 mm 3 m/S 713 mmHg 49%
15:00 +30°C° 0 mm 3 m/S 713 mmHg 49%
16:00 +30°C° 0 mm 2 m/S 713 mmHg 52%
17:00 +29°C° 0 mm 2 m/S 713 mmHg 56%
18:00 +29°C° 0 mm 1 m/S 713 mmHg 59%
19:00 +27°C° 0 mm 1 m/S 713 mmHg 66%
20:00 +25°C° 0 mm 2 m/S 713 mmHg 73%
21:00 +23°C° 0 mm 2 m/S 713 mmHg 80%
22:00 +22°C° 0.2 mm 1 m/S 713 mmHg 82%
23:00 +21°C° 0.2 mm 1 m/S 713 mmHg 84%

Morgen, 23 Juni, Mittwoch

Zeit Temperatur Niederschläge Wind Luftdruck Luftfeuchtigkeit
00:00 +20°C° 0.2 mm 1 m/S 714 mmHg 86%
01:00 +20°C° 0 mm 1 m/S 713 mmHg 85%
02:00 +20°C° 0 mm 1 m/S 713 mmHg 84%
03:00 +17°C° 0 mm 0 m/S 713 mmHg 82%
04:00 +20°C° 0 mm 1 m/S 713 mmHg 81%
05:00 +20°C° 0 mm 1 m/S 713 mmHg 79%
06:00 +21°C° 0 mm 1 m/S 713 mmHg 78%
07:00 +23°C° 0 mm 1 m/S 713 mmHg 72%
08:00 +24°C° 0 mm 2 m/S 714 mmHg 65%
09:00 +26°C° 0 mm 3 m/S 714 mmHg 59%
10:00 +27°C° 0 mm 3 m/S 714 mmHg 56%
11:00 +28°C° 0 mm 3 m/S 714 mmHg 53%
12:00 +29°C° 0 mm 3 m/S 714 mmHg 51%
13:00 +29°C° 0 mm 2 m/S 714 mmHg 50%
14:00 +29°C° 0 mm 2 m/S 714 mmHg 50%
15:00 +30°C° 0 mm 2 m/S 714 mmHg 49%
16:00 +29°C° 0 mm 2 m/S 714 mmHg 52%
17:00 +29°C° 0 mm 1 m/S 714 mmHg 55%
18:00 +29°C° 0 mm 1 m/S 714 mmHg 59%
19:00 +27°C° 0 mm 1 m/S 714 mmHg 63%
20:00 +26°C° 0 mm 1 m/S 714 mmHg 67%
21:00 +24°C° 0 mm 1 m/S 714 mmHg 71%
22:00 +23°C° 0 mm 1 m/S 714 mmHg 72%
23:00 +23°C° 0 mm 1 m/S 714 mmHg 74%

übermorgen, 24 Juni, Donnerstag

Zeit Temperatur Niederschläge Wind Luftdruck Luftfeuchtigkeit
00:00 +22°C° 0 mm 1 m/S 714 mmHg 75%
01:00 +22°C° 0 mm 1 m/S 714 mmHg 76%
02:00 +21°C° 0 mm 1 m/S 714 mmHg 76%
03:00 +21°C° 0 mm 1 m/S 714 mmHg 77%
04:00 +21°C° 0 mm 1 m/S 714 mmHg 76%
05:00 +21°C° 0 mm 1 m/S 714 mmHg 75%
06:00 +21°C° 0 mm 1 m/S 714 mmHg 74%
07:00 +22°C° 0 mm 1 m/S 714 mmHg 67%
08:00 +24°C° 0 mm 1 m/S 714 mmHg 60%
09:00 +25°C° 0 mm 2 m/S 715 mmHg 54%
10:00 +26°C° 0 mm 2 m/S 715 mmHg 51%
11:00 +27°C° 0 mm 1 m/S 715 mmHg 48%
12:00 +28°C° 0 mm 1 m/S 715 mmHg 44%
13:00 +29°C° 0 mm 1 m/S 715 mmHg 43%
14:00 +29°C° 0 mm 1 m/S 715 mmHg 42%
15:00 +30°C° 0 mm 1 m/S 715 mmHg 41%
16:00 +30°C° 0 mm 1 m/S 715 mmHg 46%
17:00 +29°C° 0 mm 2 m/S 715 mmHg 51%
18:00 +29°C° 0 mm 2 m/S 714 mmHg 56%
19:00 +27°C° 0 mm 2 m/S 714 mmHg 60%
20:00 +25°C° 0 mm 2 m/S 714 mmHg 63%
21:00 +23°C° 0 mm 2 m/S 714 mmHg 66%
22:00 +21°C° 0 mm 2 m/S 714 mmHg 67%
23:00 +22°C° 0 mm 1 m/S 714 mmHg 67%

25 Juni, Freitag

Zeit Temperatur Niederschläge Wind Luftdruck Luftfeuchtigkeit
00:00 +21°C° 0 mm 1 m/S 713 mmHg 68%
01:00 +21°C° 0 mm 1 m/S 713 mmHg 70%
02:00 +20°C° 0 mm 1 m/S 713 mmHg 71%
03:00 +20°C° 0 mm 1 m/S 713 mmHg 73%
04:00 +20°C° 0 mm 1 m/S 713 mmHg 74%
05:00 +21°C° 0 mm 1 m/S 713 mmHg 76%
06:00 +20°C° 0 mm 2 m/S 714 mmHg 77%
07:00 +23°C° 0 mm 2 m/S 714 mmHg 73%
08:00 +24°C° 0 mm 2 m/S 714 mmHg 69%
09:00 +25°C° 0 mm 3 m/S 714 mmHg 65%
10:00 +26°C° 0 mm 3 m/S 714 mmHg 62%
11:00 +27°C° 0 mm 3 m/S 714 mmHg 58%
12:00 +28°C° 0 mm 3 m/S 714 mmHg 55%
13:00 +29°C° 0 mm 3 m/S 714 mmHg 53%
14:00 +29°C° 0 mm 2 m/S 714 mmHg 51%
15:00 +30°C° 0 mm 2 m/S 714 mmHg 49%
16:00 +29°C° 0 mm 2 m/S 714 mmHg 52%
17:00 +29°C° 0 mm 2 m/S 713 mmHg 55%
18:00 +29°C° 0 mm 2 m/S 713 mmHg 58%
19:00 +27°C° 0 mm 2 m/S 713 mmHg 63%
20:00 +25°C° 0 mm 2 m/S 713 mmHg 68%
21:00 +23°C° 0 mm 2 m/S 713 mmHg 73%
22:00 +23°C° 0 mm 2 m/S 712 mmHg 75%
23:00 +21°C° 0 mm 2 m/S 712 mmHg 77%

26 Juni, Samstag

Zeit Temperatur Niederschläge Wind Luftdruck Luftfeuchtigkeit
00:00 +21°C° 0 mm 2 m/S 712 mmHg 78%
01:00 +21°C° 0 mm 2 m/S 712 mmHg 79%
02:00 +20°C° 0 mm 2 m/S 712 mmHg 80%
03:00 +20°C° 0 mm 2 m/S 711 mmHg 81%
04:00 +20°C° 0 mm 2 m/S 712 mmHg 82%
05:00 +20°C° 0 mm 2 m/S 712 mmHg 83%
06:00 +21°C° 0 mm 2 m/S 712 mmHg 85%
07:00 +22°C° 0 mm 3 m/S 713 mmHg 81%
08:00 +23°C° 0 mm 4 m/S 713 mmHg 77%
09:00 +23°C° 0 mm 4 m/S 713 mmHg 74%
10:00 +26°C° 0 mm 4 m/S 713 mmHg 69%
11:00 +27°C° 0 mm 3 m/S 713 mmHg 65%
12:00 +28°C° 0 mm 2 m/S 713 mmHg 61%
13:00 +28°C° 0 mm 2 m/S 713 mmHg 60%
14:00 +28°C° 0 mm 3 m/S 713 mmHg 59%
15:00 +29°C° 0 mm 3 m/S 713 mmHg 58%
16:00 +28°C° 0 mm 3 m/S 713 mmHg 60%
17:00 +28°C° 0 mm 3 m/S 713 mmHg 63%
18:00 +28°C° 0 mm 3 m/S 713 mmHg 66%
19:00 +26°C° 0 mm 2 m/S 713 mmHg 70%
20:00 +25°C° 0 mm 2 m/S 713 mmHg 74%
21:00 +24°C° 0 mm 1 m/S 713 mmHg 77%
22:00 +23°C° 0 mm 1 m/S 712 mmHg 79%
23:00 +22°C° 0 mm 1 m/S 712 mmHg 80%

27 Juni, Sonntag

Zeit Temperatur Niederschläge Wind Luftdruck Luftfeuchtigkeit
00:00 +21°C° 0 mm 2 m/S 712 mmHg 82%
01:00 +21°C° 0.4 mm 2 m/S 712 mmHg 84%
02:00 +20°C° 0.4 mm 2 m/S 712 mmHg 86%
03:00 +20°C° 0.4 mm 3 m/S 712 mmHg 88%
04:00 +20°C° 0 mm 3 m/S 713 mmHg 90%
05:00 +20°C° 0 mm 3 m/S 713 mmHg 91%
06:00 +20°C° 0 mm 3 m/S 713 mmHg 92%
07:00 +21°C° 0 mm 3 m/S 714 mmHg 89%
08:00 +21°C° 0 mm 3 m/S 714 mmHg 85%
09:00 +22°C° 0 mm 3 m/S 714 mmHg 82%
10:00 +24°C° 0 mm 3 m/S 714 mmHg 76%
11:00 +26°C° 0 mm 4 m/S 714 mmHg 71%
12:00 +27°C° 0 mm 4 m/S 714 mmHg 66%
13:00 +28°C° 0 mm 4 m/S 714 mmHg 63%
14:00 +28°C° 0 mm 3 m/S 714 mmHg 60%
15:00 +29°C° 0 mm 3 m/S 714 mmHg 58%
16:00 +28°C° 0 mm 3 m/S 714 mmHg 60%
17:00 +28°C° 0 mm 3 m/S 714 mmHg 62%
18:00 +28°C° 0 mm 2 m/S 714 mmHg 64%
19:00 +26°C° 0 mm 2 m/S 714 mmHg 68%
20:00 +25°C° 0 mm 1 m/S 714 mmHg 71%
21:00 +24°C° 0 mm 1 m/S 714 mmHg 75%
22:00 +23°C° 0 mm 1 m/S 714 mmHg 77%
23:00 +20°C° 0 mm 0 m/S 714 mmHg 80%
Mehr zeigen

Wir brauchen deine Erlaubnis

Meteoprog und unser Service Anbieter werden persönliche Daten aufbewahren, so wie Cookies, Geräte Bezeichnung oder ähnliche Technologien von deinem Gerät und Prozess, so wie Persönliche Daten Inhalte und Werbungen, genauso wie social Media und den Verkehr zu analysieren.

  • Aufbewahrung und/oder Zugang zu deiner Geräte Informationen.

    Cookies, Geräte Bezeichnung oder andere Informationen, können aufbewahrt oder Zugang zu deinem Gerät erhalten, für den Grund, der oben angegeben wird.

  • Personalisierte Werbung und Inhalte, Messungen, Einblick in das Publikum und Produkt Entwicklung.

    Werbungen und Inhalte können personalisiert werden, basierend auf ein Profil. Mehr Daten können besser personalisierte Werbungen und Inhalte hinzufügen. Werbung und Inhalte können gezeigt und gemessen werden. Einblicke über das Publikum, welche die Werbung gesehen haben und den Inhalt, können abgeleitet werden. So wie Daten können genutzt werden, um es zu verbessern oder die Benutzer Erfahrung zu verbessern das System und die Software.

Wenn du “Ich stimme zu” klickst, erlaubst du uns, die Cookies zu benutzen die Geräte Bezeichnung, den Web oder ähnliche Technologien zu benutzen. Deine Settings, können in deinem Gerät bei deinem Browser geändert werden.

Für den bestimmten Zweck, berechtigten Interessen beruhen darauf, mehr als auf den Inhalt. Du kannst mehr darüber in unseren Privaten und Cookie Politik lesen.